,,PressureMeas_1m,,PRMeasQMR101_1,,RHStat155_1m_1,,SRMeasQMS101R_1m,,TAStat155_1m_1,,GenWind_1,,GenWind_1,
2019-10-26, 00:00:06,VALID,918.155,VALID,0.0,VALID,99.914,VALID,-0.006,VALID,19.974,INVALID,360.0,VALID,0.0,
2019-10-26, 00:01:06,VALID,918.143,VALID,0.0,VALID,99.914,VALID,-0.004,VALID,19.958,INVALID,360.0,VALID,0.0,
2019-10-26, 00:02:06,VALID,918.129,VALID,0.0,VALID,99.917,VALID,0.007,VALID,19.929,INVALID,360.0,VALID,0.0,
2019-10-26, 00:03:06,VALID,918.129,VALID,0.0,VALID,99.915,VALID,0.006,VALID,19.926,INVALID,360.0,VALID,0.0,
2019-10-26, 00:04:06,VALID,918.114,VALID,0.0,VALID,99.915,VALID,-0.016,VALID,19.927,INVALID,360.0,VALID,0.0,
2019-10-26, 00:05:06,VALID,918.108,VALID,0.0,VALID,99.914,VALID,-0.006,VALID,19.958,INVALID,360.0,VALID,0.0,
2019-10-26, 00:06:06,VALID,918.092,VALID,0.0,VALID,99.916,VALID,0.006,VALID,19.97,INVALID,360.0,VALID,0.0,
2019-10-26, 00:07:06,VALID,918.1,VALID,0.0,VALID,99.918,VALID,0.022,VALID,19.946,INVALID,360.0,VALID,0.0,
2019-10-26, 00:08:06,VALID,918.113,VALID,0.0,VALID,99.914,VALID,0.039,VALID,19.902,INVALID,360.0,VALID,0.0,
2019-10-26, 00:09:06,VALID,918.128,VALID,0.0,VALID,99.915,VALID,0.051,VALID,19.879,INVALID,360.0,VALID,0.0,
2019-10-26, 00:10:06,VALID,918.129,VALID,0.0,VALID,99.917,VALID,0.042,VALID,19.889,INVALID,360.0,VALID,0.0,
2019-10-26, 00:11:06,VALID,918.136,VALID,0.0,VALID,99.914,VALID,0.03,VALID,19.868,INVALID,360.0,VALID,0.0,
2019-10-26, 00:12:06,VALID,918.142,VALID,0.0,VALID,99.917,VALID,0.032,VALID,19.86,INVALID,360.0,VALID,0.0,
2019-10-26, 00:13:06,VALID,918.138,VALID,0.0,VALID,99.917,VALID,0.04,VALID,19.843,INVALID,360.0,VALID,0.0,
2019-10-26, 00:14:06,VALID,918.114,VALID,0.0,VALID,99.916,VALID,0.034,VALID,19.851,INVALID,360.0,VALID,0.0,
2019-10-26, 00:15:06,VALID,918.111,VALID,0.0,VALID,99.916,VALID,0.032,VALID,19.86,INVALID,360.0,VALID,0.0,
2019-10-26, 00:16:06,VALID,918.087,VALID,0.0,VALID,99.917,VALID,0.036,VALID,19.871,INVALID,360.0,VALID,0.0,
2019-10-26, 00:17:06,VALID,918.076,VALID,0.0,VALID,99.915,VALID,0.048,VALID,19.87,INVALID,360.0,VALID,0.0,
2019-10-26, 00:18:06,VALID,918.063,VALID,0.0,VALID,99.916,VALID,0.034,VALID,19.855,INVALID,360.0,VALID,0.0,
2019-10-26, 00:19:06,VALID,918.05,VALID,0.0,VALID,99.917,VALID,0.042,VALID,19.892,INVALID,360.0,VALID,0.0,
2019-10-26, 00:20:06,VALID,918.034,VALID,0.0,VALID,99.915,VALID,0.022,VALID,19.896,INVALID,360.0,VALID,0.0,
2019-10-26, 00:21:06,VALID,918.032,VALID,0.0,VALID,99.915,VALID,-0.007,VALID,19.905,INVALID,360.0,VALID,0.0,
2019-10-26, 00:22:06,VALID,918.016,VALID,0.0,VALID,99.915,VALID,-0.027,VALID,19.936,INVALID,360.0,VALID,0.0,
2019-10-26, 00:23:06,VALID,918.027,VALID,0.0,VALID,99.916,VALID,-0.01,VALID,19.944,INVALID,360.0,VALID,0.0,
2019-10-26, 00:24:06,VALID,918.006,VALID,0.0,VALID,99.914,VALID,-0.016,VALID,19.961,INVALID,360.0,VALID,0.0,
2019-10-26, 00:25:06,VALID,917.996,VALID,0.0,VALID,99.916,VALID,-0.011,VALID,19.97,INVALID,360.0,VALID,0.0,
2019-10-26, 00:26:06,VALID,917.976,VALID,0.0,VALID,99.912,VALID,-0.017,VALID,19.952,INVALID,360.0,VALID,0.0,
2019-10-26, 00:27:06,VALID,917.964,VALID,0.0,VALID,99.916,VALID,-0.016,VALID,19.915,INVALID,360.0,VALID,0.0,
2019-10-26, 00:28:06,VALID,917.941,VALID,0.0,VALID,99.915,VALID,-0.016,VALID,19.923,INVALID,360.0,VALID,0.0,
2019-10-26, 00:29:06,VALID,917.931,VALID,0.0,VALID,99.913,VALID,-0.013,VALID,19.926,INVALID,360.0,VALID,0.0,
2019-10-26, 00:30:06,VALID,917.902,VALID,0.0,VALID,99.915,VALID,-0.031,VALID,19.93,INVALID,360.0,VALID,0.0,
2019-10-26, 00:31:06,VALID,917.897,VALID,0.0,VALID,99.917,VALID,-0.012,VALID,19.952,INVALID,360.0,VALID,0.0,
2019-10-26, 00:32:06,VALID,917.893,VALID,0.0,VALID,99.914,VALID,-0.006,VALID,19.947,INVALID,360.0,VALID,0.0,
2019-10-26, 00:33:06,VALID,917.894,VALID,0.0,VALID,99.917,VALID,0.002,VALID,19.932,INVALID,360.0,VALID,0.0,
2019-10-26, 00:34:06,VALID,917.892,VALID,0.0,VALID,99.916,VALID,-0.007,VALID,19.95,INVALID,360.0,VALID,0.0,
2019-10-26, 00:35:06,VALID,917.904,VALID,0.0,VALID,99.915,VALID,-0.019,VALID,19.974,INVALID,360.0,VALID,0.0,
2019-10-26, 00:36:06,VALID,917.898,VALID,0.0,VALID,99.917,VALID,0.0,VALID,19.984,INVALID,360.0,VALID,0.0,
2019-10-26, 00:37:06,VALID,917.881,VALID,0.0,VALID,99.916,VALID,0.018,VALID,19.983,INVALID,360.0,VALID,0.0,
2019-10-26, 00:38:06,VALID,917.869,VALID,0.0,VALID,99.918,VALID,0.021,VALID,19.971,INVALID,360.0,VALID,0.0,
2019-10-26, 00:39:06,VALID,917.881,VALID,0.0,VALID,99.914,VALID,0.019,VALID,19.973,INVALID,360.0,VALID,0.0,
2019-10-26, 00:40:06,VALID,917.85,VALID,0.0,VALID,99.916,VALID,0.017,VALID,19.969,INVALID,360.0,VALID,0.0,
2019-10-26, 00:41:06,VALID,917.852,VALID,0.0,VALID,99.915,VALID,0.014,VALID,19.957,INVALID,360.0,VALID,0.0,
2019-10-26, 00:42:06,VALID,917.85,VALID,0.0,VALID,99.914,VALID,0.021,VALID,19.934,INVALID,360.0,VALID,0.0,
2019-10-26, 00:43:06,VALID,917.831,VALID,0.0,VALID,99.915,VALID,0.015,VALID,19.961,INVALID,360.0,VALID,0.0,
2019-10-26, 00:44:06,VALID,917.814,VALID,0.0,VALID,99.916,VALID,0.013,VALID,19.957,INVALID,360.0,VALID,0.0,
2019-10-26, 00:45:06,VALID,917.804,VALID,0.0,VALID,99.917,VALID,-0.002,VALID,19.943,INVALID,360.0,VALID,0.0,
2019-10-26, 00:46:06,VALID,917.777,VALID,0.0,VALID,99.915,VALID,0.002,VALID,19.95,INVALID,360.0,VALID,0.0,
2019-10-26, 00:47:06,VALID,917.748,VALID,0.0,VALID,99.918,VALID,0.017,VALID,19.945,INVALID,360.0,VALID,0.0,
2019-10-26, 00:48:06,VALID,917.735,VALID,0.0,VALID,99.915,VALID,0.008,VALID,19.953,INVALID,360.0,VALID,0.0,
2019-10-26, 00:49:06,VALID,917.742,VALID,0.0,VALID,99.918,VALID,-0.002,VALID,19.958,INVALID,360.0,VALID,0.0,
2019-10-26, 00:50:06,VALID,917.718,VALID,0.0,VALID,99.917,VALID,0.02,VALID,19.963,INVALID,360.0,VALID,0.0,
2019-10-26, 00:51:06,VALID,917.735,VALID,0.0,VALID,99.918,VALID,0.006,VALID,19.987,INVALID,360.0,VALID,0.0,
2019-10-26, 00:52:06,VALID,917.713,VALID,0.0,VALID,99.915,VALID,-0.039,VALID,20.031,INVALID,360.0,VALID,0.0,
2019-10-26, 00:53:06,VALID,917.704,VALID,0.0,VALID,99.914,VALID,-0.036,VALID,20.034,INVALID,360.0,VALID,0.0,
2019-10-26, 00:54:06,VALID,917.684,VALID,0.0,VALID,99.916,VALID,-0.045,VALID,20.025,INVALID,360.0,VALID,0.0,
2019-10-26, 00:55:06,VALID,917.677,VALID,0.0,VALID,99.914,VALID,-0.062,VALID,20.021,INVALID,360.0,VALID,0.0,
2019-10-26, 00:56:06,VALID,917.653,VALID,0.0,VALID,99.918,VALID,-0.04,VALID,20.031,INVALID,360.0,VALID,0.0,
2019-10-26, 00:57:06,VALID,917.649,VALID,0.0,VALID,99.917,VALID,-0.046,VALID,20.03,INVALID,360.0,VALID,0.0,
2019-10-26, 00:58:06,VALID,917.635,VALID,0.0,VALID,99.916,VALID,-0.037,VALID,20.052,INVALID,360.0,VALID,0.0,
2019-10-26, 00:59:06,VALID,917.621,VALID,0.0,VALID,99.915,VALID,-0.034,VALID,20.029,INVALID,360.0,VALID,0.0,
2019-10-26, 01:00:06,VALID,917.619,VALID,0.0,VALID,99.915,VALID,-0.035,VALID,20.026,INVALID,360.0,VALID,0.0,
2019-10-26, 01:01:06,VALID,917.606,VALID,0.0,VALID,99.914,VALID,-0.045,VALID,20.002,INVALID,360.0,VALID,0.0,
2019-10-26, 01:02:06,VALID,917.594,VALID,0.0,VALID,99.915,VALID,-0.046,VALID,19.984,INVALID,360.0,VALID,0.0,
2019-10-26, 01:03:06,VALID,917.58,VALID,0.0,VALID,99.916,VALID,-0.045,VALID,19.979,INVALID,360.0,VALID,0.0,
2019-10-26, 01:04:06,VALID,917.577,VALID,0.0,VALID,99.918,VALID,-0.035,VALID,19.989,INVALID,360.0,VALID,0.0,
2019-10-26, 01:05:06,VALID,917.541,VALID,0.0,VALID,99.914,VALID,-0.045,VALID,19.994,INVALID,360.0,VALID,0.0,
2019-10-26, 01:06:06,VALID,917.509,VALID,0.0,VALID,99.915,VALID,-0.037,VALID,20.004,INVALID,360.0,VALID,0.0,
2019-10-26, 01:07:06,VALID,917.488,VALID,0.0,VALID,99.92,VALID,-0.013,VALID,19.99,INVALID,360.0,VALID,0.0,
2019-10-26, 01:08:06,VALID,917.482,VALID,0.0,VALID,99.914,VALID,-0.015,VALID,19.949,INVALID,360.0,VALID,0.0,
2019-10-26, 01:09:06,VALID,917.469,VALID,0.0,VALID,99.914,VALID,-0.022,VALID,19.896,INVALID,360.0,VALID,0.0,
2019-10-26, 01:10:06,VALID,917.468,VALID,0.0,VALID,99.915,VALID,0.008,VALID,19.875,INVALID,360.0,VALID,0.0,
2019-10-26, 01:11:06,VALID,917.458,VALID,0.0,VALID,99.917,VALID,-0.008,VALID,19.923,INVALID,360.0,VALID,0.0,
2019-10-26, 01:12:06,VALID,917.434,VALID,0.0,VALID,99.922,VALID,-0.005,VALID,19.973,INVALID,360.0,VALID,0.0,
2019-10-26, 01:13:06,VALID,917.422,VALID,0.0,VALID,99.916,VALID,-0.021,VALID,20.011,INVALID,360.0,VALID,0.0,
2019-10-26, 01:14:06,VALID,917.404,VALID,0.0,VALID,99.917,VALID,-0.021,VALID,19.989,INVALID,360.0,VALID,0.0,
2019-10-26, 01:15:06,VALID,917.389,VALID,0.0,VALID,99.916,VALID,-0.022,VALID,19.916,INVALID,360.0,VALID,0.0,
2019-10-26, 01:16:06,VALID,917.368,VALID,0.0,VALID,99.915,VALID,0.003,VALID,19.907,INVALID,360.0,VALID,0.0,
2019-10-26, 01:17:06,VALID,917.362,VALID,0.0,VALID,99.917,VALID,-0.006,VALID,19.918,INVALID,360.0,VALID,0.0,
2019-10-26, 01:18:06,VALID,917.343,VALID,0.0,VALID,99.917,VALID,-0.012,VALID,19.885,INVALID,360.0,VALID,0.0,
2019-10-26, 01:19:06,VALID,917.327,VALID,0.0,VALID,99.916,VALID,-0.012,VALID,19.859,INVALID,360.0,VALID,0.0,
2019-10-26, 01:20:06,VALID,917.307,VALID,0.0,VALID,99.914,VALID,-0.012,VALID,19.835,INVALID,360.0,VALID,0.0,
2019-10-26, 01:21:06,VALID,917.276,VALID,0.0,VALID,99.914,VALID,-0.001,VALID,19.857,INVALID,360.0,VALID,0.0,
2019-10-26, 01:22:06,VALID,917.251,VALID,0.0,VALID,99.916,VALID,0.01,VALID,19.853,INVALID,360.0,VALID,0.0,
2019-10-26, 01:23:06,VALID,917.225,VALID,0.0,VALID,99.915,VALID,0.006,VALID,19.867,INVALID,360.0,VALID,0.0,
2019-10-26, 01:24:06,VALID,917.208,VALID,0.0,VALID,99.916,VALID,0.014,VALID,19.882,INVALID,360.0,VALID,0.0,
2019-10-26, 01:25:06,VALID,917.188,VALID,0.0,VALID,99.914,VALID,0.018,VALID,19.883,INVALID,360.0,VALID,0.0,
2019-10-26, 01:26:06,VALID,917.169,VALID,0.0,VALID,99.918,VALID,0.009,VALID,19.877,INVALID,360.0,VALID,0.0,
2019-10-26, 01:27:06,VALID,917.161,VALID,0.0,VALID,99.915,VALID,-0.006,VALID,19.852,INVALID,360.0,VALID,0.0,
2019-10-26, 01:28:06,VALID,917.132,VALID,0.0,VALID,99.916,VALID,0.028,VALID,19.835,INVALID,360.0,VALID,0.0,
2019-10-26, 01:29:06,VALID,917.127,VALID,0.0,VALID,99.917,VALID,-0.001,VALID,19.832,INVALID,360.0,VALID,0.0,
2019-10-26, 01:30:06,VALID,917.095,VALID,0.0,VALID,99.916,VALID,0.011,VALID,19.839,INVALID,360.0,VALID,0.0,
2019-10-26, 01:31:06,VALID,917.083,VALID,0.0,VALID,99.915,VALID,0.013,VALID,19.852,INVALID,360.0,VALID,0.0,
2019-10-26, 01:32:06,VALID,917.063,VALID,0.0,VALID,99.916,VALID,0.021,VALID,19.855,INVALID,360.0,VALID,0.0,
2019-10-26, 01:33:06,VALID,917.045,VALID,0.0,VALID,99.915,VALID,0.009,VALID,19.873,INVALID,360.0,VALID,0.0,
2019-10-26, 01:34:06,VALID,917.027,VALID,0.0,VALID,99.914,VALID,0.006,VALID,19.892,INVALID,360.0,VALID,0.0,
2019-10-26, 01:35:06,VALID,917.023,VALID,0.0,VALID,99.912,VALID,0.008,VALID,19.915,INVALID,360.0,VALID,0.0,
2019-10-26, 01:36:06,VALID,916.996,VALID,0.0,VALID,99.917,VALID,0.015,VALID,19.925,INVALID,360.0,VALID,0.0,
2019-10-26, 01:37:06,VALID,916.979,VALID,0.0,VALID,99.914,VALID,0.052,VALID,19.925,INVALID,360.0,VALID,0.0,
2019-10-26, 01:38:06,VALID,916.934,VALID,0.0,VALID,99.916,VALID,0.051,VALID,19.928,INVALID,360.0,VALID,0.0,
2019-10-26, 01:39:06,VALID,916.926,VALID,0.0,VALID,99.916,VALID,0.067,VALID,19.917,INVALID,360.0,VALID,0.0,
2019-10-26, 01:40:06,VALID,916.905,VALID,0.0,VALID,99.913,VALID,0.065,VALID,19.914,INVALID,360.0,VALID,0.0,
2019-10-26, 01:41:06,VALID,916.889,VALID,0.0,VALID,99.916,VALID,0.081,VALID,19.936,INVALID,360.0,VALID,0.0,
2019-10-26, 01:42:06,VALID,916.867,VALID,0.0,VALID,99.915,VALID,0.062,VALID,19.94,INVALID,360.0,VALID,0.0,
2019-10-26, 01:43:06,VALID,916.861,VALID,0.0,VALID,99.913,VALID,0.075,VALID,19.948,INVALID,360.0,VALID,0.0,
2019-10-26, 01:44:06,VALID,916.852,VALID,0.0,VALID,99.915,VALID,0.071,VALID,19.949,INVALID,360.0,VALID,0.0,
2019-10-26, 01:45:06,VALID,916.857,VALID,0.0,VALID,99.916,VALID,0.072,VALID,19.952,INVALID,360.0,VALID,0.0,
2019-10-26, 01:46:06,VALID,916.812,VALID,0.0,VALID,99.916,VALID,0.062,VALID,19.947,INVALID,360.0,VALID,0.0,
2019-10-26, 01:47:06,VALID,916.791,VALID,0.0,VALID,99.914,VALID,0.071,VALID,19.937,INVALID,360.0,VALID,0.0,
2019-10-26, 01:48:06,VALID,916.768,VALID,0.0,VALID,99.913,VALID,0.077,VALID,19.944,INVALID,360.0,VALID,0.0,
2019-10-26, 01:49:06,VALID,916.75,VALID,0.0,VALID,99.914,VALID,0.074,VALID,19.967,INVALID,360.0,VALID,0.0,
2019-10-26, 01:50:06,VALID,916.73,VALID,0.0,VALID,99.918,VALID,0.058,VALID,20.048,INVALID,360.0,VALID,0.0,
2019-10-26, 01:51:06,VALID,916.709,VALID,0.0,VALID,99.918,VALID,0.043,VALID,20.079,INVALID,360.0,VALID,0.0,
2019-10-26, 01:52:06,VALID,916.724,VALID,0.0,VALID,99.916,VALID,0.024,VALID,20.032,INVALID,360.0,VALID,0.0,
2019-10-26, 01:53:06,VALID,916.705,VALID,0.0,VALID,99.917,VALID,0.018,VALID,20.004,INVALID,360.0,VALID,0.0,
2019-10-26, 01:54:06,VALID,916.726,VALID,0.0,VALID,99.919,VALID,0.004,VALID,19.993,INVALID,360.0,VALID,0.0,
2019-10-26, 01:55:06,VALID,916.72,VALID,0.0,VALID,99.915,VALID,0.024,VALID,19.99,INVALID,360.0,VALID,0.0,
2019-10-26, 01:56:06,VALID,916.717,VALID,0.0,VALID,99.917,VALID,0.025,VALID,19.985,INVALID,360.0,VALID,0.0,
2019-10-26, 01:57:06,VALID,916.715,VALID,0.0,VALID,99.918,VALID,0.032,VALID,19.973,INVALID,360.0,VALID,0.0,
2019-10-26, 01:58:06,VALID,916.691,VALID,0.0,VALID,99.915,VALID,0.024,VALID,19.95,INVALID,360.0,VALID,0.0,
2019-10-26, 01:59:06,VALID,916.695,VALID,0.0,VALID,99.916,VALID,0.029,VALID,19.954,INVALID,360.0,VALID,0.0,
2019-10-26, 02:00:06,VALID,916.671,VALID,0.0,VALID,99.916,VALID,0.02,VALID,19.925,INVALID,360.0,VALID,0.0,
2019-10-26, 02:01:06,VALID,916.661,VALID,0.0,VALID,99.914,VALID,0.008,VALID,19.911,INVALID,360.0,VALID,0.0,
2019-10-26, 02:02:06,VALID,916.644,VALID,0.0,VALID,99.916,VALID,0.0,VALID,19.897,INVALID,360.0,VALID,0.0,
2019-10-26, 02:03:06,VALID,916.626,VALID,0.0,VALID,99.917,VALID,0.031,VALID,19.915,INVALID,360.0,VALID,0.0,
2019-10-26, 02:04:06,VALID,916.597,VALID,0.0,VALID,99.917,VALID,0.036,VALID,19.959,INVALID,360.0,VALID,0.0,
2019-10-26, 02:05:06,VALID,916.589,VALID,0.0,VALID,99.914,VALID,0.033,VALID,19.931,INVALID,360.0,VALID,0.0,
2019-10-26, 02:06:06,VALID,916.56,VALID,0.0,VALID,99.913,VALID,0.01,VALID,19.919,INVALID,360.0,VALID,0.0,
2019-10-26, 02:07:06,VALID,916.53,VALID,0.0,VALID,99.914,VALID,-0.015,VALID,19.927,INVALID,360.0,VALID,0.0,
2019-10-26, 02:08:06,VALID,916.524,VALID,0.0,VALID,99.914,VALID,-0.007,VALID,19.939,INVALID,360.0,VALID,0.0,
2019-10-26, 02:09:06,VALID,916.511,VALID,0.0,VALID,99.915,VALID,-0.006,VALID,19.956,INVALID,360.0,VALID,0.0,
2019-10-26, 02:10:06,VALID,916.514,VALID,0.0,VALID,99.917,VALID,-0.009,VALID,19.949,INVALID,360.0,VALID,0.0,
2019-10-26, 02:11:06,VALID,916.505,VALID,0.0,VALID,99.916,VALID,-0.017,VALID,19.92,INVALID,360.0,VALID,0.0,
2019-10-26, 02:12:06,VALID,916.496,VALID,0.0,VALID,99.915,VALID,-0.012,VALID,19.906,INVALID,360.0,VALID,0.0,
2019-10-26, 02:13:06,VALID,916.519,VALID,0.0,VALID,99.914,VALID,-0.012,VALID,19.894,INVALID,360.0,VALID,0.0,
2019-10-26, 02:14:06,VALID,916.49,VALID,0.0,VALID,99.915,VALID,-0.004,VALID,19.9,INVALID,360.0,VALID,0.0,
2019-10-26, 02:15:06,VALID,916.492,VALID,0.0,VALID,99.917,VALID,-0.013,VALID,19.923,INVALID,360.0,VALID,0.0,
2019-10-26, 02:16:06,VALID,916.496,VALID,0.0,VALID,99.917,VALID,-0.024,VALID,19.937,INVALID,360.0,VALID,0.0,
2019-10-26, 02:17:06,VALID,916.478,VALID,0.0,VALID,99.917,VALID,-0.015,VALID,19.947,INVALID,360.0,VALID,0.0,
2019-10-26, 02:18:06,VALID,916.468,VALID,0.0,VALID,99.915,VALID,-0.013,VALID,19.957,INVALID,360.0,VALID,0.0,
2019-10-26, 02:19:06,VALID,916.473,VALID,0.0,VALID,99.915,VALID,-0.01,VALID,19.964,INVALID,360.0,VALID,0.0,
2019-10-26, 02:20:06,VALID,916.47,VALID,0.0,VALID,99.915,VALID,-0.002,VALID,19.954,INVALID,360.0,VALID,0.0,
2019-10-26, 02:21:06,VALID,916.455,VALID,0.0,VALID,99.915,VALID,0.002,VALID,19.915,INVALID,360.0,VALID,0.0,
2019-10-26, 02:22:06,VALID,916.458,VALID,0.0,VALID,99.918,VALID,0.029,VALID,19.904,INVALID,360.0,VALID,0.0,
2019-10-26, 02:23:06,VALID,916.432,VALID,0.0,VALID,99.916,VALID,0.031,VALID,19.884,INVALID,360.0,VALID,0.0,
2019-10-26, 02:24:06,VALID,916.436,VALID,0.0,VALID,99.914,VALID,0.04,VALID,19.869,INVALID,360.0,VALID,0.0,
2019-10-26, 02:25:06,VALID,916.423,VALID,0.0,VALID,99.915,VALID,0.037,VALID,19.876,INVALID,360.0,VALID,0.0,
2019-10-26, 02:26:06,VALID,916.416,VALID,0.0,VALID,99.915,VALID,0.022,VALID,19.87,INVALID,360.0,VALID,0.0,
2019-10-26, 02:27:06,VALID,916.41,VALID,0.0,VALID,99.916,VALID,0.011,VALID,19.87,INVALID,360.0,VALID,0.0,
2019-10-26, 02:28:06,VALID,916.409,VALID,0.0,VALID,99.915,VALID,0.02,VALID,19.884,INVALID,360.0,VALID,0.0,
2019-10-26, 02:29:06,VALID,916.404,VALID,0.0,VALID,99.917,VALID,0.032,VALID,19.917,INVALID,360.0,VALID,0.0,
2019-10-26, 02:30:06,VALID,916.393,VALID,0.0,VALID,99.915,VALID,0.038,VALID,19.935,INVALID,360.0,VALID,0.0,
2019-10-26, 02:31:06,VALID,916.38,VALID,0.0,VALID,99.914,VALID,0.026,VALID,19.937,INVALID,360.0,VALID,0.0,
2019-10-26, 02:32:06,VALID,916.366,VALID,0.0,VALID,99.916,VALID,0.036,VALID,19.934,INVALID,360.0,VALID,0.0,
2019-10-26, 02:33:06,VALID,916.35,VALID,0.0,VALID,99.916,VALID,0.026,VALID,19.922,INVALID,360.0,VALID,0.0,
2019-10-26, 02:34:06,VALID,916.358,VALID,0.0,VALID,99.916,VALID,0.041,VALID,19.917,INVALID,360.0,VALID,0.0,
2019-10-26, 02:35:06,VALID,916.337,VALID,0.0,VALID,99.917,VALID,0.007,VALID,19.92,INVALID,360.0,VALID,0.0,
2019-10-26, 02:36:06,VALID,916.333,VALID,0.0,VALID,99.914,VALID,0.02,VALID,19.91,INVALID,360.0,VALID,0.0,
2019-10-26, 02:37:06,VALID,916.339,VALID,0.0,VALID,99.913,VALID,0.006,VALID,19.902,INVALID,360.0,VALID,0.0,
2019-10-26, 02:38:06,VALID,916.333,VALID,0.0,VALID,99.916,VALID,0.022,VALID,19.917,INVALID,360.0,VALID,0.0,
2019-10-26, 02:39:06,VALID,916.338,VALID,0.0,VALID,99.914,VALID,0.016,VALID,19.933,INVALID,360.0,VALID,0.0,
2019-10-26, 02:40:06,VALID,916.333,VALID,0.0,VALID,99.915,VALID,0.017,VALID,19.952,INVALID,360.0,VALID,0.0,
2019-10-26, 02:41:06,VALID,916.356,VALID,0.0,VALID,99.916,VALID,0.027,VALID,19.959,INVALID,360.0,VALID,0.0,
2019-10-26, 02:42:06,VALID,916.378,VALID,0.0,VALID,99.916,VALID,0.014,VALID,19.97,INVALID,360.0,VALID,0.0,
2019-10-26, 02:43:06,VALID,916.347,VALID,0.0,VALID,99.916,VALID,0.021,VALID,19.985,INVALID,360.0,VALID,0.0,
2019-10-26, 02:44:06,VALID,916.382,VALID,0.0,VALID,99.915,VALID,0.009,VALID,20.003,INVALID,360.0,VALID,0.0,
2019-10-26, 02:45:06,VALID,916.36,VALID,0.0,VALID,99.915,VALID,0.012,VALID,19.997,INVALID,360.0,VALID,0.0,
2019-10-26, 02:46:06,VALID,916.364,VALID,0.0,VALID,99.915,VALID,0.021,VALID,19.99,INVALID,360.0,VALID,0.0,
2019-10-26, 02:47:06,VALID,916.347,VALID,0.0,VALID,99.916,VALID,0.009,VALID,19.971,INVALID,360.0,VALID,0.0,
2019-10-26, 02:48:06,VALID,916.343,VALID,0.0,VALID,99.919,VALID,0.003,VALID,19.971,INVALID,360.0,VALID,0.0,
2019-10-26, 02:49:06,VALID,916.334,VALID,0.0,VALID,99.915,VALID,0.021,VALID,19.958,INVALID,360.0,VALID,0.0,
2019-10-26, 02:50:06,VALID,916.329,VALID,0.0,VALID,99.919,VALID,0.018,VALID,19.967,INVALID,360.0,VALID,0.0,
2019-10-26, 02:51:06,VALID,916.339,VALID,0.0,VALID,99.915,VALID,0.029,VALID,19.982,INVALID,360.0,VALID,0.0,
2019-10-26, 02:52:06,VALID,916.344,VALID,0.0,VALID,99.915,VALID,0.042,VALID,20.009,INVALID,360.0,VALID,0.0,
2019-10-26, 02:53:06,VALID,916.351,VALID,0.0,VALID,99.914,VALID,0.023,VALID,20.051,INVALID,360.0,VALID,0.0,
2019-10-26, 02:54:06,VALID,916.349,VALID,0.0,VALID,99.916,VALID,0.024,VALID,20.053,INVALID,360.0,VALID,0.0,
2019-10-26, 02:55:06,VALID,916.348,VALID,0.0,VALID,99.918,VALID,0.033,VALID,20.045,INVALID,360.0,VALID,0.0,
2019-10-26, 02:56:06,VALID,916.337,VALID,0.0,VALID,99.914,VALID,0.027,VALID,20.026,INVALID,360.0,VALID,0.0,
2019-10-26, 02:57:06,VALID,916.332,VALID,0.0,VALID,99.917,VALID,0.016,VALID,19.99,INVALID,360.0,VALID,0.0,
2019-10-26, 02:58:06,VALID,916.302,VALID,0.0,VALID,99.916,VALID,0.017,VALID,20.014,INVALID,360.0,VALID,0.0,
2019-10-26, 02:59:06,VALID,916.274,VALID,0.0,VALID,99.918,VALID,0.031,VALID,20.058,INVALID,360.0,VALID,0.0,
2019-10-26, 03:00:06,VALID,916.281,VALID,0.0,VALID,99.916,VALID,0.032,VALID,20.067,INVALID,360.0,VALID,0.0,
2019-10-26, 03:01:06,VALID,916.259,VALID,0.0,VALID,99.917,VALID,0.025,VALID,20.057,VALID,65.0,VALID,0.0,
2019-10-26, 03:02:06,VALID,916.243,VALID,0.0,VALID,99.917,VALID,0.006,VALID,20.048,INVALID,360.0,VALID,0.0,
2019-10-26, 03:03:06,VALID,916.254,VALID,0.0,VALID,99.917,VALID,0.028,VALID,20.057,INVALID,360.0,VALID,0.0,
2019-10-26, 03:04:06,VALID,916.246,VALID,0.0,VALID,99.917,VALID,0.022,VALID,20.072,INVALID,360.0,VALID,0.0,
2019-10-26, 03:05:06,VALID,916.271,VALID,0.0,VALID,99.917,VALID,0.02,VALID,20.067,INVALID,360.0,VALID,0.0,
2019-10-26, 03:06:06,VALID,916.268,VALID,0.0,VALID,99.917,VALID,0.02,VALID,20.045,INVALID,360.0,VALID,0.0,
2019-10-26, 03:07:06,VALID,916.28,VALID,0.0,VALID,99.917,VALID,0.042,VALID,20.056,INVALID,360.0,VALID,0.0,
2019-10-26, 03:08:06,VALID,916.275,VALID,0.0,VALID,99.916,VALID,0.039,VALID,20.045,INVALID,360.0,VALID,0.0,
2019-10-26, 03:09:06,VALID,916.294,VALID,0.0,VALID,99.917,VALID,0.023,VALID,20.056,INVALID,360.0,VALID,0.0,
2019-10-26, 03:10:06,VALID,916.301,VALID,0.0,VALID,99.919,VALID,0.032,VALID,20.062,INVALID,360.0,VALID,0.0,
2019-10-26, 03:11:06,VALID,916.293,VALID,0.0,VALID,99.916,VALID,0.017,VALID,20.055,INVALID,360.0,VALID,0.0,
2019-10-26, 03:12:06,VALID,916.306,VALID,0.0,VALID,99.915,VALID,0.021,VALID,20.072,INVALID,360.0,VALID,0.0,
2019-10-26, 03:13:06,VALID,916.313,VALID,0.0,VALID,99.915,VALID,0.033,VALID,20.079,INVALID,360.0,VALID,0.0,
2019-10-26, 03:14:06,VALID,916.315,VALID,0.0,VALID,99.915,VALID,0.038,VALID,20.061,INVALID,360.0,VALID,0.0,
2019-10-26, 03:15:06,VALID,916.325,VALID,0.0,VALID,99.917,VALID,0.037,VALID,20.055,INVALID,360.0,VALID,0.0,
2019-10-26, 03:16:06,VALID,916.334,VALID,0.0,VALID,99.916,VALID,0.048,VALID,20.06,INVALID,360.0,VALID,0.0,
2019-10-26, 03:17:06,VALID,916.346,VALID,0.0,VALID,99.918,VALID,0.035,VALID,20.06,INVALID,360.0,VALID,0.0,
2019-10-26, 03:18:06,VALID,916.345,VALID,0.0,VALID,99.917,VALID,0.035,VALID,20.031,INVALID,360.0,VALID,0.0,
2019-10-26, 03:19:06,VALID,916.352,VALID,0.0,VALID,99.916,VALID,0.052,VALID,20.029,INVALID,360.0,VALID,0.0,
2019-10-26, 03:20:06,VALID,916.335,VALID,0.0,VALID,99.916,VALID,0.045,VALID,20.027,INVALID,360.0,VALID,0.0,
2019-10-26, 03:21:06,VALID,916.343,VALID,0.0,VALID,99.915,VALID,0.037,VALID,20.031,INVALID,360.0,VALID,0.0,
2019-10-26, 03:22:06,VALID,916.338,VALID,0.0,VALID,99.915,VALID,0.061,VALID,20.053,INVALID,360.0,VALID,0.0,
2019-10-26, 03:23:06,VALID,916.313,VALID,0.0,VALID,99.916,VALID,0.05,VALID,20.032,INVALID,360.0,VALID,0.0,
2019-10-26, 03:24:06,VALID,916.331,VALID,0.0,VALID,99.916,VALID,0.048,VALID,20.007,INVALID,360.0,VALID,0.0,
2019-10-26, 03:25:06,VALID,916.31,VALID,0.0,VALID,99.915,VALID,0.059,VALID,20.009,INVALID,360.0,VALID,0.0,
2019-10-26, 03:26:06,VALID,916.291,VALID,0.0,VALID,99.916,VALID,0.047,VALID,19.996,INVALID,360.0,VALID,0.0,
2019-10-26, 03:27:06,VALID,916.297,VALID,0.0,VALID,99.915,VALID,0.053,VALID,19.992,INVALID,360.0,VALID,0.0,
2019-10-26, 03:28:06,VALID,916.288,VALID,0.0,VALID,99.916,VALID,0.049,VALID,19.993,INVALID,360.0,VALID,0.0,
2019-10-26, 03:29:06,VALID,916.283,VALID,0.0,VALID,99.915,VALID,0.055,VALID,19.993,INVALID,360.0,VALID,0.0,
2019-10-26, 03:30:06,VALID,916.296,VALID,0.0,VALID,99.917,VALID,0.058,VALID,19.992,INVALID,360.0,VALID,0.0,
2019-10-26, 03:31:06,VALID,916.3,VALID,0.0,VALID,99.916,VALID,0.052,VALID,19.986,INVALID,360.0,VALID,0.0,
2019-10-26, 03:32:06,VALID,916.312,VALID,0.0,VALID,99.916,VALID,0.052,VALID,20.011,INVALID,360.0,VALID,0.0,
2019-10-26, 03:33:06,VALID,916.312,VALID,0.0,VALID,99.915,VALID,0.046,VALID,20.015,INVALID,360.0,VALID,0.0,
2019-10-26, 03:34:06,VALID,916.324,VALID,0.0,VALID,99.915,VALID,0.05,VALID,20.01,INVALID,360.0,VALID,0.0,
2019-10-26, 03:35:06,VALID,916.317,VALID,0.0,VALID,99.917,VALID,0.042,VALID,20.014,INVALID,360.0,VALID,0.0,
2019-10-26, 03:36:06,VALID,916.337,VALID,0.0,VALID,99.918,VALID,0.038,VALID,20.016,INVALID,360.0,VALID,0.0,
2019-10-26, 03:37:06,VALID,916.344,VALID,0.0,VALID,99.917,VALID,0.028,VALID,20.029,INVALID,360.0,VALID,0.0,
2019-10-26, 03:38:06,VALID,916.341,VALID,0.0,VALID,99.915,VALID,0.023,VALID,20.04,INVALID,360.0,VALID,0.0,